Location: Frydek-Mistek
(49.6830°N, 18.3330°E)
Time: 04:04:51
(UTC+02:00)

ISS - Pass Details

Date: 18 May 2021
Orbit: 417 x 422 km, 51.6° (Epoch: 13 June)

Event Time Altitude Azimuth Distance (km) Brightness Sun altitude
Rises 22:53:34 0° 267° (W) 2,363 0.4 -16.4°
Reaches altitude 10° 22:55:41 10° 271° (W) 1,501 -0.6 -16.6°
Maximum altitude 22:59:01 63° 353° (N) 475 -3.3 -16.8°
Drops below altitude 10° 23:02:23 10° 76° (ENE) 1,506 -1.1 -17.1°
Enters shadow 23:03:21 - 78° (ENE) 1,901 -0.6 -17.1°
